Regional Weather Roundup
Issued by NWS Goodland, KS

Home | Current Version | Previous Version | Graphics & Text | Print | Product List | Glossary On
Versions: 1 2 3 4 5 6 7 8 9 10 11 12 13 14 15 16 17 18 19 20 21 22 23 24 25 26 27 28 29 30 31 32 33 34 35 36 37 38 39 40 41 42 43 44 45 46 47 48 49 50
000
ASUS43 KGLD 251608
RWRGLD

GOODLAND FORECAST AREA HOURLY WEATHER ROUNDUP
NATIONAL WEATHER SERVICE GOODLAND KS
900 AM MST TUE NOV 25 2014

...OFFICIAL OBSERVATIONS...

CITY           SKY/WX    TMP DP  RH WIND       PRES   REMARKS
GOODLAND KS    PTSUNNY   37  17  44 SW18G26   30.06F
HILL CITY KS   MOSUNNY   35  21  56 SW8       30.13F
IMPERIAL NEB   CLOUDY    30  20  66 SW12      30.01F
MCCOOK NEB     PTSUNNY   31  22  69 SW7       30.06F
AKRON CO       CLOUDY    34   9  35 SW16      29.97S
BURLINGTON CO  CLOUDY    33  14  45 SW18G25   30.05F
LIMON CO       CLOUDY    33  12  41 SW13      30.01F
$$

...UNOFFICIAL OBSERVATIONS...

CITY           SKY/WX    TMP DP  RH WIND       PRES   REMARKS
COLBY KS       SUNNY     37  23  56 S14       30.08F
GOVE KS          N/A     35  32  89 MISG        N/A
NORTON KS      SUNNY     36  19  51 SW7       30.08F
SHARON SPRINGS   N/A     34  23  63 SW16G23     N/A
TRIBUNE KS     MOSUNNY   39  27  60 SW16      30.13F
TRENTON NEB      N/A     29  32 100 SW12        N/A  WCI  19
YUMA CO          N/A     33  12  42 SW12G18     N/A
$$



USA.gov is the U.S. government's official web portal to all federal, state and local government web resources and services.